This is the latest recevied weather packets stored in our database for station/object LU1MQF-10. If no packets are shown the sender has not sent any weather packets the latest 10 day(s).
| Time | Temp. | Humidity | Pressure | Rain* | Wind** | Luminosity | Snow |
|---|---|---|---|---|---|---|---|
| 1777239763 | 20.56° C | 29% | 1026.7 hPa | - | - | - | - |
| 1777238863 | 20.56° C | 29% | 1026.5 hPa | - | - | - | - |
| 1777237967 | 20° C | 29% | 1026.3 hPa | - | - | - | - |
| 1777237963 | 20° C | 29% | 1026.3 hPa | - | - | - | - |
| 1777237067 | 19.44° C | 30% | 1026.3 hPa | - | - | - | - |
| 1777237063 | 19.44° C | 30% | 1026.3 hPa | - | - | - | - |
| 1777236163 | 18.89° C | 31% | 1026.2 hPa | - | - | - | - |
| 1777235266 | 18.33° C | 30% | 1026 hPa | - | - | - | - |
| 1777235263 | 18.33° C | 30% | 1026 hPa | - | - | - | - |
| 1777234367 | 16.67° C | 29% | 1025.9 hPa | - | - | - | - |
| 1777234362 | 16.67° C | 29% | 1025.9 hPa | - | - | - | - |
| 1777233466 | 15.56° C | 30% | 1025.8 hPa | - | - | - | - |
| 1777233462 | 15.56° C | 30% | 1025.8 hPa | - | - | - | - |
| 1777232568 | 15.56° C | 30% | 1025.6 hPa | - | - | - | - |
| 1777232562 | 15.56° C | 30% | 1025.6 hPa | - | - | - | - |
| 1777231670 | 15.56° C | 31% | 1025.4 hPa | - | - | - | - |
| 1777231662 | 15.56° C | 31% | 1025.4 hPa | - | - | - | - |
| 1777230766 | 15.56° C | 32% | 1025.3 hPa | - | - | - | - |
| 1777230762 | 15.56° C | 32% | 1025.3 hPa | - | - | - | - |
| 1777229862 | 15.56° C | 32% | 1025.3 hPa | - | - | - | - |
| 1777228965 | 15.56° C | 32% | 1025.4 hPa | - | - | - | - |
| 1777228961 | 15.56° C | 32% | 1025.4 hPa | - | - | - | - |
| 1777228065 | 15.56° C | 33% | 1025.5 hPa | - | - | - | - |
| 1777228061 | 15.56° C | 33% | 1025.5 hPa | - | - | - | - |
| 1777227165 | 16.11° C | 33% | 1025.6 hPa | - | - | - | - |
* Rain since midnight (hover to see other rain measurements)
** Current wind speed in m/s (hover to see current wind gust speed)